{"data":{"norad_id":66698,"epoch":"2026-09-20T11:09:10.756512Z","epoch_age_seconds":123964,"freshness":"FRESH","line1":"1 66698U 25276AJ  26263.46470783  .00003859  00000+0  17904-3 0  9993","line2":"2 66698  97.4103 335.3336 0004825  48.8746 311.2905 15.20623648 44896","mean_motion":15.20623648,"eccentricity":0.0004825,"inclination_deg":97.4103,"raan_deg":335.3336,"arg_perigee_deg":48.8746,"mean_anomaly_deg":311.2905,"bstar":0.00017904,"rev_number":4489,"period_min":94.697988019189,"perigee_km":500.63767315539,"apogee_km":507.27889510457,"semimajor_km":6882.09528413,"source":"CELESTRAK","updated_at":"2026-09-21T09:00:16.128948Z"}}